Volver al catálogo

COSMOS 2251 DEB

ActivoLEO
NORAD 33995·DEBRIS·🇷🇺 Russia

Lanzado Jun 16, 1993 desde Plesetsk Cosmodrome

Loading…

Próximos Pases (próximas 24 horas)

TLE

ActualizadoSource: Space-Track

Época: Sep 13, 2026, 14:43 UTC

1 33995U 93036GE  26256.61365386  .00001296  00000-0  44664-3 0  9994
2 33995  74.0620 335.9415 0061688 282.3799  77.0454 14.35874807914636

Sigue COSMOS 2251 DEB en tiempo real con AllMySat

Download on the App Store